Regional Weather Roundup
Issued by NWS

Home | Current Version | Previous Version | Graphics & Text | Print | Product List | Glossary On
Versions: 1 2 3 4 5 6 7 8 9 10 11 12 13 14 15 16 17 18 19 20 21 22 23 24 25 26 27 28 29 30 31 32 33 34 35 36 37 38 39 40 41 42 43 44 45 46 47 48 49 50
000
ASUS45 KBOI 182110
RWRID

IDAHO REGIONAL WEATHER ROUNDUP
NATIONAL WEATHER SERVICE BOISE ID
200 PM MST SAT NOV 18 2017

NOTE: "FAIR" INDICATES FEW OR NO CLOUDS BELOW 12000 FEET
WITH NO SIGNIFICANT WEATHER AND/OR OBSTRUCTIONS TO VISIBILITY

IDZ012-014-182200-
SOUTHWEST IDAHO


CITY           SKY/WX    TMP DP  RH WIND       PRES   REMARKS
BOISE          SUNNY     47  23  38 SE15      30.34F
CALDWELL       SUNNY     48  26  42 E10       30.35F
MOUNTAIN HOME  SUNNY     43  26  49 E14       30.36F
$$

IDZ016-017-182200-
SOUTHCENTRAL IDAHO


CITY           SKY/WX    TMP DP  RH WIND       PRES   REMARKS
BURLEY         SUNNY     42  18  37 SE6       30.36F
JEROME         SUNNY     41  20  43 E5        30.36F
TWIN FALLS     SUNNY     42  22  44 E6        30.35F
$$

IDZ019>023-182200-
SOUTHEAST IDAHO


CITY           SKY/WX    TMP DP  RH WIND       PRES   REMARKS
IDAHO FALLS    CLOUDY    36  23  59 SW13      30.39F WCI  27
POCATELLO      MOSUNNY   41  18  39 VRB5      30.39F
REXBURG        CLOUDY    33  22  63 SW14      30.38F WCI  23
$$

IDZ006-010-011-018-031-032-182200-
CENTRAL IDAHO MOUNTAINS


CITY           SKY/WX    TMP DP  RH WIND       PRES   REMARKS
MCCALL         SUNNY     32  21  64 S3        30.28F
HAILEY         MOSUNNY   34  16  47 CALM      30.37S
STANLEY          N/A     23  10  57 N3        30.31F
SALMON         MOSUNNY   40  15  36 S9        30.32F WCI  34
CHALLIS        MOSUNNY   36  14  40 W3        30.32F
$$

IDZ002-004-006-007-026-182200-
NORTHERN IDAHO


CITY           SKY/WX    TMP DP  RH WIND       PRES   REMARKS
LEWISTON       MOSUNNY   50  33  52 SE3       30.27F
LOWELL           N/A     46  38  73 N3        30.32F
COEUR D`ALENE  CLOUDY    42  33  70 W3        30.27F
MULLAN PASS    CLOUDY    25  22  88 VRB3      30.18S
$$



USA.gov is the U.S. government's official web portal to all federal, state and local government web resources and services.